Flag for United Kingdom Weather past 2 weeks in Chesterfield, England, United Kingdom

43 °F


Feels Like: 33 °F
Forecast: N/A
Wind: 25 mph from West

Location: East Midlands

Current Time: Nov 29, 2015 at 11:58:42 PM

Latest Report: Nov 29, 2015 at 10:50 PM

Visibility: 10 mi

Pressure: 29.89 "Hg

Humidity: 66%

Dew point: 32 °F

Location of ChesterfieldLocation

Historic Weather in Chesterfield — Graph


Chesterfield temperature yesterday

Maximum temperature yesterday: 46 °F (at 5:20 PM)
Minimum temperature yesterday: 36 °F (at 5:20 AM)
Average temperature yesterday: 42 °F

Past Weeks' High & Low Weather Summary

High59 °F (Nov 15, 1:20 AM)100% (Nov 17, 1:20 AM)30.24 "Hg (Nov 17, 1:20 AM)
Low27 °F (Nov 21, 7:50 PM)58% (Nov 16, 12:20 PM)29.33 "Hg (Nov 17, 3:20 PM)
Average46 °F84%29.79 "Hg
* Reported Nov 14 10:20 PM — Nov 29 10:20 PM, Chesterfield, Weather by CustomWeather, © 2015

Note: Actual official high and low records may vary slightly from our data, if they occured in-between our weather recording intervals... More about our weather records


Chesterfield weather history for previous 24 hours

Time TempWeatherWind HumidityBarometerVisibility
10:20 PM
Sun, Nov 29
43 °FClear.25 mph71%29.89 "Hg10 mi
9:50 PM43 °FClear.22 mph76%29.86 "Hg10 mi
9:20 PM43 °FClear.24 mph76%29.83 "Hg10 mi
8:50 PM43 °FClear.25 mph76%29.83 "Hg10 mi
8:20 PM45 °FSprinkles. Passing clouds.36 mph71%29.80 "HgN/A
7:50 PM45 °FSprinkles. Passing clouds.28 mph76%29.80 "HgN/A
7:20 PM45 °FSprinkles. Passing clouds.21 mph81%29.77 "HgN/A
6:50 PM48 °FPassing clouds.26 mph66%29.74 "HgN/A
6:20 PM48 °FClear.30 mph66%29.68 "Hg10 mi
5:50 PM50 °FClear.23 mph67%29.68 "Hg10 mi
5:20 PM50 °FPassing clouds.28 mph62%29.65 "HgN/A
4:50 PM50 °FPassing clouds.26 mph62%29.62 "HgN/A
4:20 PM52 °FPartly cloudy.25 mph67%29.59 "HgN/A
3:50 PM52 °FScattered showers. Broken clouds.30 mph72%29.59 "HgN/A
3:20 PM52 °FDrizzle. Partly sunny.37 mph77%29.56 "HgN/A
2:50 PM54 °FScattered showers. Partly sunny.35 mph72%29.53 "HgN/A
2:20 PM54 °FScattered showers. Partly sunny.35 mph77%29.53 "HgN/A
1:50 PM54 °FScattered showers. Partly sunny.31 mph72%29.50 "HgN/A
1:20 PM54 °FScattered showers. Partly sunny.31 mph72%29.50 "HgN/A
12:50 PM54 °FScattered showers. Partly sunny.30 mph72%29.53 "HgN/A
12:20 PM52 °FBroken clouds.28 mph77%29.53 "HgN/A
11:50 AM52 °FBroken clouds.26 mph77%29.53 "HgN/A
11:20 AM52 °FBroken clouds.26 mph77%29.53 "HgN/A
10:50 AM50 °FSprinkles. Passing clouds.28 mph82%29.53 "HgN/A
9:50 AM50 °FPassing clouds.26 mph82%29.56 "HgN/A
9:20 AM48 °FLight rain. Scattered clouds.23 mph87%29.56 "HgN/A
8:50 AM48 °FLight rain. Scattered clouds.24 mph87%29.56 "HgN/A
8:20 AM48 °FPassing clouds.26 mph87%29.56 "HgN/A
7:50 AM48 °FPassing clouds.21 mph87%29.56 "HgN/A
7:20 AM46 °FLight rain. Passing clouds.24 mph87%29.56 "HgN/A
6:50 AM48 °FPassing clouds.18 mph76%29.59 "HgN/A
6:20 AM46 °FPassing clouds.20 mph82%29.59 "HgN/A
5:50 AM46 °FPassing clouds.20 mph82%29.59 "HgN/A
5:20 AM46 °FClear.17 mph82%29.59 "Hg10 mi
4:50 AM46 °FClear.18 mph82%29.59 "Hg10 mi
4:20 AM46 °FPassing clouds.21 mph82%29.59 "HgN/A
3:50 AM46 °FPassing clouds.23 mph82%29.59 "HgN/A
3:20 AM46 °FPassing clouds.24 mph82%29.59 "HgN/A
2:50 AM46 °FPassing clouds.22 mph82%29.59 "HgN/A
2:20 AM45 °FScattered showers. Passing clouds.17 mph87%29.59 "HgN/A
1:50 AM45 °FSprinkles. Passing clouds.17 mph87%29.59 "HgN/A
1:20 AM45 °FSprinkles. Passing clouds.26 mph81%29.59 "HgN/A
12:50 AM46 °FSprinkles. Passing clouds.29 mph76%29.59 "HgN/A
12:20 AM46 °FPassing clouds.22 mph76%29.59 "HgN/A
11:20 PM
Sat, Nov 28
46 °FPassing clouds.22 mph76%29.56 "HgN/A
Weather by CustomWeather, © 2015

See weather overviewHow to use our weather pages